Lone Rock, WI

5:05 PM CDT on May 26, 2018 (GMT -0500)
Tri-County Regional

Weather History for KLNR - May, 2013

Change the Weather History Date:

Tuesday, May 14, 2013

  Actual Average Record
Temperature  
Mean Temperature 72 °F -  
Max Temperature 91 °F 66 °F 91 °F (2013)
Min Temperature 54 °F 45 °F 33 °F (2016)
Cooling Degree Days 8    
Growing Degree Days 22 (Base 50)    
Moisture  
Dew Point 51 °F    
Average Humidity 46    
Maximum Humidity 69    
Minimum Humidity 22    
Precipitation  
Precipitation 0.24 in - - ()
Sea Level Pressure  
Sea Level Pressure 29.64 in    
Wind  
Wind Speed 7 mph (SSW)    
Max Wind Speed 22 mph    
Max Gust Speed 29 mph    
Visibility 9 miles    
Events Rain , Thunderstorm    
Averages and records for this station are not official NWS values.
T = Trace of Precipitation, MM = Missing Value Source: NWS Daily Summary

Daily Weather History Graph

Daily Weather History Graph

Search for Another Location

Airport or City:

Astronomy

May. 14, 2013 Rise Set
Actual Time 5:37 AM CDT 8:17 PM CDT
Civil Twilight 5:05 AM CDT 8:49 PM CDT
Nautical Twilight 4:24 AM CDT 9:31 PM CDT
Astronomical Twilight 3:37 AM CDT 10:18 PM CDT
Moon 9:17 AM CDT (5/14) No Moon Set
Length of Visible Light 15h 44m
Length of Day
14h 39m
Waxing Crescent, 19% of the Moon is Illuminated
May 14
Waxing Crescent
May 17
First Quarter
May 24
Full
May 31
Last Quarter
Jun 8
New

Hourly Weather History & Observations

Time (CDT) Temp. Heat Index Dew Point Humidity Pressure Visibility Wind Dir Wind Speed Gust Speed Precip Events Conditions
12:56 AM 60.1 °F - 37.9 °F 44% 29.82 in 10.0 mi South 8.1 mph - N/A   Clear
1:56 AM 60.1 °F - 39.0 °F 46% 29.79 in 10.0 mi South 4.6 mph - N/A   Scattered Clouds
2:56 AM 60.1 °F - 39.9 °F 47% 29.75 in 10.0 mi Variable 4.6 mph - N/A   Clear
3:56 AM 60.1 °F - 41.0 °F 49% 29.74 in 10.0 mi SW 9.2 mph - N/A   Clear
4:56 AM 57.9 °F - 42.1 °F 56% 29.73 in 10.0 mi SW 3.5 mph - N/A   Clear
5:56 AM 54.0 °F - 42.1 °F 64% 29.73 in 10.0 mi Calm Calm - N/A   Clear
6:56 AM 57.0 °F - 46.9 °F 69% 29.73 in 10.0 mi Calm Calm - N/A   Clear
7:56 AM 63.0 °F - 48.9 °F 60% 29.73 in 10.0 mi West 5.8 mph - N/A   Clear
8:56 AM 66.9 °F - 50.0 °F 54% 29.71 in 10.0 mi West 8.1 mph - N/A   Clear
9:56 AM 72.0 °F - 51.1 °F 48% 29.70 in 10.0 mi West 8.1 mph - N/A   Clear
10:56 AM 77.0 °F - 53.1 °F 43% 29.72 in 10.0 mi Calm Calm - N/A   Clear
11:56 AM 82.0 °F - 52.0 °F 35% 29.71 in 10.0 mi SSW 5.8 mph - N/A   Clear
12:56 PM 88.0 °F - 51.1 °F 28% 29.70 in 10.0 mi Calm Calm - N/A   Clear
1:56 PM 89.1 °F - 51.1 °F 27% 29.70 in 10.0 mi Calm Calm - N/A   Clear
2:56 PM 89.1 °F - 50.0 °F 26% 29.65 in 10.0 mi East 8.1 mph - N/A   Clear
3:56 PM 91.0 °F - 46.9 °F 22% 29.60 in 10.0 mi South 12.7 mph - N/A   Clear
4:56 PM 91.0 °F - 48.9 °F 23% 29.56 in 10.0 mi South 21.9 mph 28.8 mph N/A   Clear
5:56 PM 89.1 °F - 48.0 °F 24% 29.55 in 10.0 mi SSW 12.7 mph 24.2 mph N/A   Clear
6:56 PM 84.9 °F - 51.1 °F 31% 29.55 in 10.0 mi SE 8.1 mph - N/A   Overcast
7:08 PM 84.2 °F 83.0 °F 55.4 °F 37% 29.61 in 10.0 mi Calm Calm - 0.00 in Rain , Thunderstorm Light Thunderstorms and Rain
7:32 PM 75.2 °F - 60.8 °F 61% 29.59 in 1.5 mi NE 13.8 mph - 0.16 in Rain , Thunderstorm Heavy Thunderstorms and Rain
7:41 PM 75.2 °F - 60.8 °F 61% 29.54 in 2.0 mi ESE 18.4 mph - 0.24 in Rain , Thunderstorm Light Thunderstorms and Rain
7:43 PM 75.2 °F - 60.8 °F 61% 29.53 in 3.0 mi East 21.9 mph 25.3 mph 0.24 in Rain , Thunderstorm Light Rain
7:56 PM 77.0 °F - 59.0 °F 54% 29.53 in 10.0 mi SSW 8.1 mph 21.9 mph 0.24 in Thunderstorm Partly Cloudy
8:03 PM 80.6 °F 80.8 °F 57.2 °F 45% 29.56 in 10.0 mi South 9.2 mph 17.3 mph N/A   Partly Cloudy
8:56 PM 80.1 °F 80.6 °F 57.9 °F 47% 29.52 in 10.0 mi South 11.5 mph - N/A   Clear
9:56 PM 81.0 °F 81.6 °F 60.1 °F 49% 29.54 in 10.0 mi SSW 13.8 mph 21.9 mph N/A   Clear
10:56 PM 81.0 °F 81.6 °F 60.1 °F 49% 29.54 in 10.0 mi WSW 8.1 mph 16.1 mph N/A   Clear
11:56 PM 75.0 °F - 60.1 °F 60% 29.56 in 10.0 mi WSW 5.8 mph - N/A   Clear